START_TIME,STEP,MOV.,H8,t_acc.,H43,t_acc.,M25,t_acc.,H9,t_acc.
1980-11-15 03:00:18.080 ,3,0,0.,12.0,0.,12.0,0.,12.0,0.,12.0
1980-11-15 03:00:30.080 ,3,0,0.,12.0,0.,12.0,0.,12.0,0.,12.0
1980-11-15 03:00:42.080 ,2,0,0.,12.0,0.,12.0,0.,12.0,0.,12.0
1980-11-15 03:00:54.080 ,2,0,0.,12.0,0.,12.0,0.,12.0,0.,12.0
1980-11-15 03:01:06.080 ,2,0,0.,12.0,0.,12.0,0.,12.0,0.,12.0
1980-11-15 03:01:18.080 ,2,0,0.,12.0,0.,12.0,0.,12.0,0.,12.0
1980-11-15 03:01:30.080 ,1,0,0.,12.0,0.,12.0,0.,12.0,0.,12.0
1980-11-15 03:01:42.080 ,1,0,0.,12.0,0.,12.0,0.,12.0,0.,12.0
1980-11-15 03:01:54.080 ,1,0,0.,12.0,0.,12.0,0.,12.0,0.,12.0
1980-11-15 03:02:06.080 ,1,0,0.,12.0,0.,12.0,0.,12.0,0.,12.0
1980-11-15 03:02:18.080 ,0,0,0.,12.0,0.,12.0,0.,12.0,0.,12.0
1980-11-15 03:02:30.080 ,0,0,0.,12.0,0.,12.0,0.,12.0,0.,12.0
1980-11-15 03:02:42.080 ,0,0,0.,12.0,0.,12.0,0.,12.0,0.,12.0
1980-11-15 03:02:54.080 ,0,0,0.,12.0,0.,12.0,0.,12.0,0.,12.0
1980-11-15 03:03:06.080 ,0,0,0.,12.0,0.,12.0,0.,12.0,0.,12.0
1980-11-15 03:03:18.080 ,0,0,0.,12.0,0.,12.0,0.,12.0,0.,12.0
1980-11-15 03:03:30.080 ,0,0,0.,12.0,0.,12.0,0.,12.0,0.,12.0
1980-11-15 03:03:42.080 ,0,0,0.,12.0,0.,12.0,0.,12.0,0.,12.0
1980-11-15 03:03:54.080 ,1,0,0.,12.0,0.,12.0,0.,12.0,0.,12.0
1980-11-15 03:04:06.080 ,1,0,0.,12.0,0.,12.0,0.,12.0,0.,12.0
1980-11-15 03:04:18.080 ,1,0,0.,12.0,0.,12.0,0.,12.0,0.,12.0
1980-11-15 03:04:30.080 ,1,0,0.,12.0,0.,12.0,0.,12.0,0.,12.0
1980-11-15 03:04:42.080 ,2,0,0.,12.0,0.,12.0,0.,12.0,0.,12.0
1980-11-15 03:04:54.080 ,2,0,0.,12.0,0.,12.0,0.,12.0,0.,12.0
1980-11-15 03:05:06.080 ,2,0,0.,12.0,0.,12.0,0.,12.0,0.,12.0
1980-11-15 03:05:18.080 ,2,0,0.,12.0,0.,12.0,0.,12.0,0.,12.0
1980-11-15 03:05:30.080 ,3,0,0.,12.0,0.,12.0,0.,12.0,0.,12.0
1980-11-15 03:05:42.080 ,3,0,0.,12.0,0.,12.0,0.,12.0,0.,12.0
1980-11-15 03:05:54.080 ,3,0,0.,12.0,0.,12.0,0.,12.0,0.,12.0
1980-11-15 03:06:06.080 ,3,0,0.,12.0,0.,12.0,0.,12.0,0.,12.0
1980-11-15 03:06:18.080 ,4,0,0.,12.0,0.,12.0,0.,12.0,0.,12.0
1980-11-15 03:06:30.080 ,4,0,0.,12.0,0.,12.0,0.,12.0,0.,12.0
1980-11-15 03:06:42.080 ,4,0,0.,12.0,0.,12.0,0.,12.0,0.,12.0
1980-11-15 03:06:54.080 ,4,0,0.,12.0,0.,12.0,0.,12.0,0.,12.0
1980-11-15 03:07:06.080 ,5,0,0.,12.0,0.,12.0,0.,12.0,0.,12.0
1980-11-15 03:07:18.080 ,5,0,0.,12.0,0.,12.0,0.,12.0,0.,12.0
1980-11-15 03:07:30.080 ,5,0,0.,12.0,0.,12.0,0.,12.0,0.,12.0
1980-11-15 03:07:42.080 ,5,0,0.,12.0,0.,12.0,0.,12.0,0.,12.0
1980-11-15 03:07:54.080 ,6,0,0.,12.0,0.,12.0,0.,12.0,0.,12.0
1980-11-15 03:08:06.080 ,6,0,0.,12.0,0.,12.0,0.,12.0,0.,12.0
1980-11-15 03:08:18.080 ,6,0,0.,12.0,0.,12.0,0.,12.0,0.,12.0
1980-11-15 03:08:30.080 ,6,0,0.,12.0,0.,12.0,0.,12.0,0.,12.0
1980-11-15 03:08:42.080 ,7,0,0.,12.0,0.,12.0,0.,12.0,0.,12.0
1980-11-15 03:08:54.080 ,7,0,0.,12.0,0.,12.0,0.,12.0,0.,12.0
1980-11-15 03:09:06.080 ,7,0,0.,12.0,0.,12.0,0.,12.0,0.,12.0
1980-11-15 03:09:18.080 ,7,0,0.,12.0,0.,12.0,0.,12.0,0.,12.0
1980-11-15 03:09:30.080 ,7,0,0.,12.0,0.,12.0,0.,12.0,0.,12.0
1980-11-15 03:09:42.080 ,7,0,0.,12.0,0.,12.0,0.,12.0,0.,12.0
1980-11-15 03:09:54.080 ,7,0,0.,12.0,0.,12.0,0.,12.0,0.,12.0
1980-11-15 03:10:06.080 ,7,0,0.,12.0,0.,12.0,0.,12.0,0.,12.0
1980-11-15 03:10:18.080 ,6,0,0.,12.0,0.,12.0,0.,12.0,0.,12.0
1980-11-15 03:10:30.080 ,6,0,0.,12.0,0.,12.0,0.,12.0,0.,12.0
1980-11-15 03:10:42.080 ,6,0,0.,12.0,0.,12.0,0.,12.0,0.,12.0
1980-11-15 03:10:54.080 ,6,0,0.,12.0,0.,12.0,0.,12.0,0.,12.0
1980-11-15 03:11:06.080 ,5,0,0.,12.0,0.,12.0,0.,12.0,0.,12.0
1980-11-15 03:11:18.080 ,5,0,0.,12.0,0.,12.0,0.,12.0,0.,12.0
1980-11-15 03:11:30.080 ,5,0,0.,12.0,0.,12.0,0.,12.0,0.,12.0
1980-11-15 03:11:42.080 ,5,0,0.,12.0,0.,12.0,0.,12.0,0.,12.0
1980-11-15 03:11:54.080 ,4,0,0.,12.0,0.,12.0,0.,12.0,0.,12.0
1980-11-15 03:12:06.080 ,4,0,0.,12.0,0.,12.0,0.,12.0,0.,12.0
1980-11-15 03:12:18.080 ,4,0,0.,12.0,0.,12.0,0.,12.0,0.,12.0
1980-11-15 03:12:30.080 ,4,0,0.,12.0,0.,12.0,0.,12.0,0.,12.0
1980-11-15 03:12:42.080 ,3,0,0.,12.0,0.,12.0,0.,12.0,0.,12.0
1980-11-15 03:12:54.080 ,3,0,0.,12.0,0.,12.0,0.,12.0,0.,12.0
1980-11-15 03:13:06.080 ,3,0,0.,12.0,0.,12.0,0.,12.0,0.,12.0
1980-11-15 03:13:18.080 ,3,0,0.,12.0,0.,12.0,0.,12.0,0.,12.0
1980-11-15 03:13:30.080 ,2,0,0.,12.0,0.,12.0,0.,12.0,0.,12.0
1980-11-15 03:13:42.080 ,2,0,0.,12.0,0.,12.0,0.,12.0,0.,12.0
1980-11-15 03:13:54.080 ,2,0,0.,12.0,0.,12.0,0.,12.0,0.,12.0
1980-11-15 03:14:06.080 ,2,0,0.,12.0,0.,12.0,0.,12.0,0.,12.0
1980-11-15 03:14:18.080 ,1,0,0.,12.0,0.,12.0,0.,12.0,0.,12.0
1980-11-15 03:14:30.080 ,1,0,0.,12.0,0.,12.0,0.,12.0,0.,12.0
1980-11-15 03:14:42.080 ,1,0,0.,12.0,0.,12.0,0.,12.0,0.,12.0
1980-11-15 03:14:54.080 ,1,0,0.,12.0,0.,12.0,0.,12.0,0.,12.0
1980-11-15 03:15:06.080 ,0,0,0.,12.0,0.,12.0,0.,12.0,0.,12.0
1980-11-15 03:15:18.080 ,0,0,0.,12.0,0.,12.0,0.,12.0,0.,12.0
1980-11-15 03:15:30.080 ,0,0,0.,12.0,0.,12.0,0.,12.0,0.,12.0
1980-11-15 03:15:42.080 ,0,0,0.,12.0,0.,12.0,0.,12.0,0.,12.0
1980-11-15 03:15:54.080 ,0,0,0.,12.0,0.,12.0,0.,12.0,0.,12.0
1980-11-15 03:16:06.080 ,0,0,0.,12.0,0.,12.0,0.,12.0,0.,12.0
1980-11-15 03:16:18.080 ,0,0,0.,12.0,0.,12.0,0.,12.0,0.,12.0
1980-11-15 03:16:30.080 ,0,0,0.,12.0,0.,12.0,0.,12.0,0.,12.0
1980-11-15 03:16:42.080 ,1,0,0.,12.0,0.,12.0,0.,12.0,0.,12.0
1980-11-15 03:16:54.080 ,1,0,0.,12.0,0.,12.0,0.,12.0,0.,12.0
1980-11-15 03:17:06.080 ,1,0,0.,12.0,0.,12.0,0.,12.0,0.,12.0
1980-11-15 03:17:18.080 ,1,0,0.,12.0,0.,12.0,0.,12.0,0.,12.0
1980-11-15 03:17:30.080 ,2,0,0.,12.0,0.,12.0,0.,12.0,0.,12.0
1980-11-15 03:17:42.080 ,2,0,0.,12.0,0.,12.0,0.,12.0,0.,12.0
1980-11-15 03:17:54.080 ,2,0,0.,12.0,0.,12.0,0.,12.0,0.,12.0
1980-11-15 03:18:06.080 ,2,0,0.,12.0,0.,12.0,0.,12.0,0.,12.0
1980-11-15 03:18:18.080 ,3,0,0.,12.0,0.,12.0,0.,12.0,0.,12.0
1980-11-15 03:18:30.080 ,3,0,0.,12.0,0.,12.0,0.,12.0,0.,12.0
1980-11-15 03:18:42.080 ,3,0,0.,12.0,0.,12.0,0.,12.0,0.,12.0
1980-11-15 03:18:54.080 ,3,0,0.,12.0,0.,12.0,0.,12.0,0.,12.0
1980-11-15 03:19:06.080 ,4,0,0.,12.0,0.,12.0,0.,12.0,0.,12.0
1980-11-15 03:19:18.080 ,4,0,0.,12.0,0.,12.0,0.,12.0,0.,12.0
1980-11-15 03:19:30.080 ,4,0,0.,12.0,0.,12.0,0.,12.0,0.,12.0
1980-11-15 03:19:42.080 ,4,0,0.,12.0,0.,12.0,0.,12.0,0.,12.0
1980-11-15 03:19:54.080 ,5,0,0.,12.0,0.,12.0,0.,12.0,0.,12.0
1980-11-15 03:20:06.080 ,5,0,0.,12.0,0.,12.0,0.,12.0,0.,12.0
1980-11-15 03:20:18.080 ,5,0,0.,12.0,0.,12.0,0.,12.0,0.,12.0
1980-11-15 03:20:30.080 ,5,0,0.,12.0,0.,12.0,0.,12.0,0.,12.0
1980-11-15 03:20:42.080 ,6,0,0.,12.0,0.,12.0,0.,12.0,0.,12.0
1980-11-15 03:20:54.080 ,6,0,0.,12.0,0.,12.0,0.,12.0,0.,12.0
1980-11-15 03:21:06.080 ,6,0,0.,12.0,0.,12.0,0.,12.0,0.,12.0
1980-11-15 03:21:18.080 ,6,0,0.,12.0,0.,12.0,0.,12.0,0.,12.0
1980-11-15 03:21:30.080 ,7,0,0.,12.0,0.,12.0,0.,12.0,0.,12.0
1980-11-15 03:21:42.080 ,7,0,0.,12.0,0.,12.0,0.,12.0,0.,12.0
1980-11-15 03:21:54.080 ,7,0,0.,12.0,0.,12.0,0.,12.0,0.,12.0
1980-11-15 03:22:06.080 ,7,0,0.,12.0,0.,12.0,0.,12.0,0.,12.0
1980-11-15 03:22:18.080 ,7,0,0.,12.0,0.,12.0,0.,12.0,0.,12.0
1980-11-15 03:22:30.080 ,7,0,0.,12.0,0.,12.0,0.,12.0,0.,12.0
1980-11-15 03:22:42.080 ,7,0,0.,12.0,0.,12.0,0.,12.0,0.,12.0
1980-11-15 03:22:54.080 ,7,0,0.,12.0,0.,12.0,0.,12.0,0.,12.0
1980-11-15 03:23:06.080 ,6,0,0.,12.0,0.,12.0,0.,12.0,0.,12.0
1980-11-15 03:23:18.080 ,6,0,0.,12.0,0.,12.0,0.,12.0,0.,12.0
1980-11-15 03:23:30.080 ,6,0,0.,12.0,0.,12.0,0.,12.0,0.,12.0
1980-11-15 03:23:42.080 ,6,0,0.,12.0,0.,12.0,0.,12.0,0.,12.0
1980-11-15 03:23:54.080 ,5,0,0.,12.0,0.,12.0,0.,12.0,0.,12.0
1980-11-15 03:24:06.080 ,5,0,0.,12.0,0.,12.0,0.,12.0,0.,12.0
1980-11-15 03:24:18.080 ,5,0,0.,12.0,0.,12.0,0.,12.0,0.,12.0
1980-11-15 03:24:30.080 ,5,0,0.,12.0,0.,12.0,0.,12.0,0.,12.0
1980-11-15 03:24:42.080 ,4,0,0.,12.0,0.,12.0,0.,12.0,0.,12.0
1980-11-15 03:24:54.080 ,4,0,0.,12.0,0.,12.0,0.,12.0,0.,12.0
1980-11-15 03:25:06.080 ,4,0,0.,12.0,0.,12.0,0.,12.0,0.,12.0
1980-11-15 03:25:18.080 ,4,0,0.,12.0,0.,12.0,0.,12.0,0.,12.0
1980-11-15 03:25:30.080 ,3,0,0.,12.0,0.,12.0,0.,12.0,0.,12.0
1980-11-15 03:25:42.080 ,3,0,0.,12.0,0.,12.0,0.,12.0,0.,12.0
1980-11-15 03:25:54.080 ,3,0,0.,12.0,0.,12.0,0.,12.0,0.,12.0
1980-11-15 03:26:06.080 ,3,0,0.,12.0,0.,12.0,0.,12.0,0.,12.0
1980-11-15 03:26:18.080 ,2,0,0.,12.0,0.,12.0,0.,12.0,0.,12.0
1980-11-15 03:26:30.080 ,2,0,0.,12.0,0.,12.0,0.,12.0,0.,12.0
1980-11-15 03:26:42.080 ,2,0,0.,12.0,0.,12.0,0.,12.0,0.,12.0
1980-11-15 03:26:54.080 ,2,0,0.,12.0,0.,12.0,0.,12.0,0.,12.0
1980-11-15 03:27:06.080 ,1,0,0.,12.0,0.,12.0,0.,12.0,0.,12.0
1980-11-15 03:27:18.080 ,1,0,0.,12.0,0.,12.0,0.,12.0,0.,12.0
1980-11-15 03:27:30.080 ,1,0,0.,12.0,0.,12.0,0.,12.0,0.,12.0
1980-11-15 03:27:42.080 ,1,0,0.,12.0,0.,12.0,0.,12.0,0.,12.0
1980-11-15 03:27:54.080 ,0,0,0.,12.0,0.,12.0,0.,12.0,0.,12.0
1980-11-15 03:28:06.080 ,0,0,0.,12.0,0.,12.0,0.,12.0,0.,12.0
1980-11-15 03:28:18.080 ,0,0,0.,12.0,0.,12.0,0.,12.0,0.,12.0
1980-11-15 03:28:30.080 ,0,0,0.,12.0,0.,12.0,0.,12.0,0.,12.0
1980-11-15 03:28:42.080 ,0,0,0.,12.0,0.,12.0,0.,12.0,0.,12.0
1980-11-15 03:28:54.080 ,0,0,0.,12.0,0.,12.0,0.,12.0,0.,12.0
1980-11-15 03:29:06.080 ,0,0,0.,12.0,0.,12.0,0.,12.0,0.,12.0
1980-11-15 03:29:18.080 ,0,0,0.,12.0,0.,12.0,0.,12.0,0.,12.0
1980-11-15 03:29:30.080 ,1,0,0.,12.0,0.,12.0,0.,12.0,0.,12.0
1980-11-15 03:29:42.080 ,1,0,0.,12.0,0.,12.0,0.,12.0,0.,12.0
1980-11-15 03:29:54.080 ,1,0,0.,12.0,0.,12.0,0.,12.0,0.,12.0
1980-11-15 03:30:06.080 ,1,0,0.,12.0,0.,12.0,0.,12.0,0.,12.0
1980-11-15 03:30:18.080 ,2,0,0.,12.0,0.,12.0,0.,12.0,0.,12.0
1980-11-15 03:30:30.080 ,2,0,0.,12.0,0.,12.0,0.,12.0,0.,12.0
1980-11-15 03:30:42.080 ,2,0,0.,12.0,0.,12.0,0.,12.0,0.,12.0
1980-11-15 03:30:54.080 ,2,0,0.,12.0,0.,12.0,0.,12.0,0.,12.0
1980-11-15 03:31:06.080 ,3,0,0.,12.0,0.,12.0,0.,12.0,0.,12.0
1980-11-15 03:31:18.080 ,3,0,0.,12.0,0.,12.0,0.,12.0,0.,12.0
1980-11-15 03:31:30.080 ,3,0,0.,12.0,0.,12.0,0.,12.0,0.,12.0
1980-11-15 03:31:42.080 ,3,0,0.,12.0,0.,12.0,0.,12.0,0.,12.0
1980-11-15 03:31:54.080 ,4,0,0.,12.0,0.,12.0,0.,12.0,0.,12.0
1980-11-15 03:32:06.080 ,4,0,0.,12.0,0.,12.0,0.,12.0,0.,12.0
1980-11-15 03:32:18.080 ,4,0,0.,12.0,0.,12.0,0.,12.0,0.,12.0
1980-11-15 03:32:30.080 ,4,0,0.,12.0,0.,12.0,0.,12.0,0.,12.0
1980-11-15 03:32:42.080 ,5,0,0.,12.0,0.,12.0,0.,12.0,0.,12.0
1980-11-15 03:32:54.080 ,5,0,0.,12.0,0.,12.0,0.,12.0,0.,12.0
1980-11-15 03:33:06.080 ,5,0,0.,12.0,0.,12.0,0.,12.0,0.,12.0
1980-11-15 03:33:18.080 ,5,0,0.,12.0,0.,12.0,0.,12.0,0.,12.0
1980-11-15 03:33:30.080 ,6,0,0.,12.0,0.,12.0,0.,12.0,0.,12.0
1980-11-15 03:33:42.080 ,6,0,0.,12.0,0.,12.0,0.,12.0,0.,12.0
1980-11-15 03:33:54.080 ,6,0,0.,12.0,0.,12.0,0.,12.0,0.,12.0
1980-11-15 03:34:06.080 ,6,0,0.,12.0,0.,12.0,0.,12.0,0.,12.0
1980-11-15 03:34:18.080 ,7,0,0.,12.0,0.,12.0,0.,12.0,0.,12.0
1980-11-15 03:34:30.080 ,7,0,0.,12.0,0.,12.0,0.,12.0,0.,12.0
1980-11-15 03:34:42.080 ,7,0,0.,12.0,0.,12.0,0.,12.0,0.,12.0
1980-11-15 03:34:54.080 ,7,0,0.,12.0,0.,12.0,0.,12.0,0.,12.0
1980-11-15 03:35:06.080 ,7,0,0.,12.0,0.,12.0,0.,12.0,0.,12.0
1980-11-15 03:35:18.080 ,7,0,0.,12.0,0.,12.0,0.,12.0,0.,12.0
1980-11-15 03:35:30.080 ,7,0,0.,12.0,0.,12.0,0.,12.0,0.,12.0
1980-11-15 03:35:42.080 ,7,0,0.,12.0,0.,12.0,0.,12.0,0.,12.0
1980-11-15 03:35:54.080 ,6,0,0.,12.0,0.,12.0,0.,12.0,0.,12.0
1980-11-15 03:36:06.080 ,6,0,0.,12.0,0.,12.0,0.,12.0,0.,12.0
1980-11-15 03:36:18.080 ,6,0,0.,12.0,0.,12.0,0.,12.0,0.,12.0
1980-11-15 03:36:30.080 ,6,0,0.,12.0,0.,12.0,0.,12.0,0.,12.0
1980-11-15 03:36:42.080 ,5,0,0.,12.0,0.,12.0,0.,12.0,0.,12.0
1980-11-15 03:36:54.080 ,5,0,0.,12.0,0.,12.0,0.,12.0,0.,12.0
1980-11-15 03:37:06.080 ,5,0,0.,12.0,0.,12.0,0.,12.0,0.,12.0
1980-11-15 03:37:18.080 ,5,0,0.,12.0,0.,12.0,0.,12.0,0.,12.0
1980-11-15 03:37:30.080 ,4,0,0.,12.0,0.,12.0,0.,12.0,0.,12.0
1980-11-15 03:37:42.080 ,4,0,0.,12.0,0.,12.0,0.,12.0,0.,12.0
1980-11-15 03:37:54.080 ,4,0,0.,12.0,0.,12.0,0.,12.0,0.,12.0
1980-11-15 03:38:06.080 ,4,0,0.,12.0,0.,12.0,0.,12.0,0.,12.0
1980-11-15 03:38:18.080 ,3,0,0.,12.0,0.,12.0,0.,12.0,0.,12.0
1980-11-15 03:38:30.080 ,3,0,0.,12.0,0.,12.0,0.,12.0,0.,12.0
1980-11-15 03:38:42.080 ,3,0,0.,12.0,0.,12.0,0.,12.0,0.,12.0
1980-11-15 03:38:54.080 ,3,0,0.,12.0,0.,12.0,0.,12.0,0.,12.0
1980-11-15 03:39:06.080 ,2,0,0.,12.0,0.,12.0,0.,12.0,0.,12.0
1980-11-15 03:39:18.080 ,2,0,0.,12.0,0.,12.0,0.,12.0,0.,12.0
1980-11-15 03:39:30.080 ,2,0,0.,12.0,0.,12.0,0.,12.0,0.,12.0
1980-11-15 03:39:42.080 ,2,0,0.,12.0,0.,12.0,0.,12.0,0.,12.0
1980-11-15 03:39:54.080 ,1,0,0.,12.0,0.,12.0,0.,12.0,0.,12.0
1980-11-15 03:40:06.080 ,1,0,0.,12.0,0.,12.0,0.,12.0,0.,12.0
1980-11-15 03:40:18.080 ,1,0,0.,12.0,0.,12.0,0.,12.0,0.,12.0
1980-11-15 03:40:30.080 ,1,0,0.,12.0,0.,12.0,0.,12.0,0.,12.0
1980-11-15 03:40:42.080 ,0,0,0.,12.0,0.,12.0,0.,12.0,0.,12.0
1980-11-15 03:40:54.080 ,0,0,0.,12.0,0.,12.0,0.,12.0,0.,12.0
1980-11-15 03:41:06.080 ,0,0,0.,12.0,0.,12.0,0.,12.0,0.,12.0
1980-11-15 03:41:18.080 ,0,0,0.,12.0,0.,12.0,0.,12.0,0.,12.0
1980-11-15 03:41:30.080 ,0,0,0.,12.0,0.,12.0,0.,12.0,0.,12.0
1980-11-15 03:41:42.080 ,0,0,0.,12.0,0.,12.0,0.,12.0,0.,12.0
1980-11-15 03:41:54.080 ,0,0,0.,12.0,0.,12.0,0.,12.0,0.,12.0
1980-11-15 03:42:06.080 ,0,0,0.,12.0,0.,12.0,0.,12.0,0.,12.0
1980-11-15 03:42:18.080 ,1,0,0.,12.0,0.,12.0,0.,12.0,0.,12.0
1980-11-15 03:42:30.080 ,1,0,0.,12.0,0.,12.0,0.,12.0,0.,12.0
1980-11-15 03:42:42.080 ,1,0,0.,12.0,0.,12.0,0.,12.0,0.,12.0
1980-11-15 03:42:54.080 ,1,0,0.,12.0,0.,12.0,0.,12.0,0.,12.0
1980-11-15 03:43:06.080 ,2,0,0.,12.0,0.,12.0,0.,12.0,0.,12.0
1980-11-15 03:43:18.080 ,2,0,0.,12.0,0.,12.0,0.,12.0,0.,12.0
1980-11-15 03:43:30.080 ,2,0,0.,12.0,0.,12.0,0.,12.0,0.,12.0
1980-11-15 03:43:42.080 ,2,0,0.,12.0,0.,12.0,0.,12.0,0.,12.0
1980-11-15 03:43:54.080 ,3,0,0.,12.0,0.,12.0,0.,12.0,0.,12.0
1980-11-15 03:44:06.080 ,3,0,0.,12.0,0.,12.0,0.,12.0,0.,12.0
1980-11-15 03:44:18.080 ,3,0,0.,12.0,0.,12.0,0.,12.0,0.,12.0
1980-11-15 03:44:30.080 ,3,0,0.,12.0,0.,12.0,0.,12.0,0.,12.0
1980-11-15 03:44:42.080 ,4,0,0.,12.0,0.,12.0,0.,12.0,0.,12.0
1980-11-15 03:44:54.080 ,4,0,0.,12.0,0.,12.0,0.,12.0,0.,12.0
1980-11-15 03:45:06.080 ,4,0,0.,12.0,0.,12.0,0.,12.0,0.,12.0
1980-11-15 03:45:18.080 ,4,0,0.,12.0,0.,12.0,0.,12.0,0.,12.0
1980-11-15 03:45:30.080 ,5,0,0.,12.0,0.,12.0,0.,12.0,0.,12.0
1980-11-15 03:45:42.080 ,5,0,0.,12.0,0.,12.0,0.,12.0,0.,12.0
1980-11-15 03:45:54.080 ,5,0,0.,12.0,0.,12.0,0.,12.0,0.,12.0
1980-11-15 03:46:06.080 ,5,0,0.,12.0,0.,12.0,0.,12.0,0.,12.0
1980-11-15 03:46:18.080 ,6,0,0.,12.0,0.,12.0,0.,12.0,0.,12.0
1980-11-15 03:46:30.080 ,6,0,0.,12.0,0.,12.0,0.,12.0,0.,12.0
1980-11-15 03:46:42.080 ,6,0,0.,12.0,0.,12.0,0.,12.0,0.,12.0
1980-11-15 03:46:54.080 ,6,0,0.,12.0,0.,12.0,0.,12.0,0.,12.0
1980-11-15 03:47:06.080 ,7,0,0.,12.0,0.,12.0,0.,12.0,0.,12.0
1980-11-15 03:47:18.080 ,7,0,0.,12.0,0.,12.0,0.,12.0,0.,12.0
1980-11-15 03:47:30.080 ,7,0,0.,12.0,0.,12.0,0.,12.0,0.,12.0
1980-11-15 03:47:42.080 ,7,0,0.,12.0,0.,12.0,0.,12.0,0.,12.0
1980-11-15 03:47:54.080 ,7,0,0.,12.0,0.,12.0,0.,12.0,0.,12.0
1980-11-15 03:48:06.080 ,7,0,0.,12.0,0.,12.0,0.,12.0,0.,12.0
1980-11-15 03:48:18.080 ,7,0,0.,12.0,0.,12.0,0.,12.0,0.,12.0
1980-11-15 03:48:30.080 ,7,0,0.,12.0,0.,12.0,0.,12.0,0.,12.0
1980-11-15 03:48:42.080 ,6,0,0.,12.0,0.,12.0,0.,12.0,0.,12.0
1980-11-15 03:48:54.080 ,6,0,0.,12.0,0.,12.0,0.,12.0,0.,12.0
1980-11-15 03:49:06.080 ,6,0,0.,12.0,0.,12.0,0.,12.0,0.,12.0
1980-11-15 03:49:18.080 ,6,0,0.,12.0,0.,12.0,0.,12.0,0.,12.0
1980-11-15 03:49:30.080 ,5,0,0.,12.0,0.,12.0,0.,12.0,0.,12.0
1980-11-15 03:49:42.080 ,5,0,0.,12.0,0.,12.0,0.,12.0,0.,12.0
1980-11-15 03:49:54.080 ,5,0,0.,12.0,0.,12.0,0.,12.0,0.,12.0
1980-11-15 03:50:06.080 ,5,0,0.,12.0,0.,12.0,0.,12.0,0.,12.0
1980-11-15 03:50:18.080 ,4,0,0.,12.0,0.,12.0,0.,12.0,0.,12.0
1980-11-15 03:50:30.080 ,4,0,0.,12.0,0.,12.0,0.,12.0,0.,12.0
1980-11-15 03:50:42.080 ,4,0,0.,12.0,0.,12.0,0.,12.0,0.,12.0
1980-11-15 03:50:54.080 ,4,0,0.,12.0,0.,12.0,0.,12.0,0.,12.0
1980-11-15 03:51:06.080 ,3,0,0.,12.0,0.,12.0,0.,12.0,0.,12.0
1980-11-15 03:51:18.080 ,3,0,0.,12.0,0.,12.0,0.,12.0,0.,12.0
1980-11-15 03:51:30.080 ,3,0,0.,12.0,0.,12.0,0.,12.0,0.,12.0
1980-11-15 03:51:42.080 ,3,0,0.,12.0,0.,12.0,0.,12.0,0.,12.0
1980-11-15 03:51:54.080 ,2,0,0.,12.0,0.,12.0,0.,12.0,0.,12.0
1980-11-15 03:52:06.080 ,2,0,0.,12.0,0.,12.0,0.,12.0,0.,12.0
1980-11-15 03:52:18.080 ,2,0,0.,12.0,0.,12.0,0.,12.0,0.,12.0
1980-11-15 03:52:30.080 ,2,0,0.,12.0,0.,12.0,0.,12.0,0.,12.0
1980-11-15 03:52:42.080 ,1,0,0.,12.0,0.,12.0,0.,12.0,0.,12.0
1980-11-15 03:52:54.080 ,1,0,0.,12.0,0.,12.0,0.,12.0,0.,12.0
1980-11-15 03:53:06.080 ,1,0,0.,12.0,0.,12.0,0.,12.0,0.,12.0
1980-11-15 03:53:18.080 ,1,0,0.,12.0,0.,12.0,0.,12.0,0.,12.0
1980-11-15 03:53:30.080 ,0,0,0.,12.0,0.,12.0,0.,12.0,0.,12.0
1980-11-15 03:53:42.080 ,0,0,0.,12.0,0.,12.0,0.,12.0,0.,12.0
1980-11-15 03:53:54.080 ,0,0,0.,12.0,0.,12.0,0.,12.0,0.,12.0
1980-11-15 03:54:06.080 ,0,0,0.,12.0,0.,12.0,0.,12.0,0.,12.0
1980-11-15 03:54:18.080 ,0,0,0.,12.0,0.,12.0,0.,12.0,0.,12.0
1980-11-15 03:54:30.080 ,0,0,0.,12.0,0.,12.0,0.,12.0,0.,12.0
1980-11-15 03:54:42.080 ,0,0,0.,12.0,0.,12.0,0.,12.0,0.,12.0
1980-11-15 03:54:54.080 ,0,0,0.,12.0,0.,12.0,0.,12.0,0.,12.0
1980-11-15 03:55:24.080 ,0,0,,0,,0,,0,,0
1980-11-15 03:55:36.080 ,0,0,0.,12.0,0.,12.0,0.,12.0,0.,12.0
1980-11-15 03:55:30.080 ,0,0,0.,12.0,0.,12.0,0.,12.0,0.,12.0
1980-11-15 03:55:42.080 ,0,0,0.,12.0,0.,12.0,0.,12.0,0.,12.0
1980-11-15 03:55:54.080 ,2,0,0.,12.0,0.,12.0,0.,12.0,0.,12.0
1980-11-15 03:56:06.080 ,2,0,0.,12.0,0.,12.0,0.,12.0,0.,12.0
1980-11-15 03:56:18.080 ,2,0,0.,12.0,0.,12.0,0.,12.0,0.,12.0
1980-11-15 03:56:30.080 ,2,0,0.,12.0,0.,12.0,0.,12.0,0.,12.0
1980-11-15 03:56:42.080 ,3,0,0.,12.0,0.,12.0,0.,12.0,0.,12.0
1980-11-15 03:56:54.080 ,3,0,0.,12.0,0.,12.0,0.,12.0,0.,12.0
1980-11-15 03:57:06.080 ,3,0,0.,12.0,0.,12.0,0.,12.0,0.,12.0
1980-11-15 03:57:18.080 ,3,0,0.,12.0,0.,12.0,0.,12.0,0.,12.0
1980-11-15 03:57:30.080 ,4,0,0.,12.0,0.,12.0,0.,12.0,0.,12.0
1980-11-15 03:57:42.080 ,4,0,0.,12.0,0.,12.0,0.,12.0,0.,12.0
1980-11-15 03:57:54.080 ,4,0,0.,12.0,0.,12.0,0.,12.0,0.,12.0
1980-11-15 03:58:06.080 ,4,0,0.,12.0,0.,12.0,0.,12.0,0.,12.0
1980-11-15 03:58:18.080 ,5,0,0.,12.0,0.,12.0,0.,12.0,0.,12.0
1980-11-15 03:58:30.080 ,5,0,0.,12.0,0.,12.0,0.,12.0,0.,12.0
1980-11-15 03:58:42.080 ,5,0,0.,12.0,0.,12.0,0.,12.0,0.,12.0
1980-11-15 03:58:54.080 ,5,0,0.,12.0,0.,12.0,0.,12.0,0.,12.0
1980-11-15 03:59:06.080 ,6,0,0.,12.0,0.,12.0,0.,12.0,0.,12.0
1980-11-15 03:59:18.080 ,6,0,0.,12.0,0.,12.0,0.,12.0,0.,12.0
1980-11-15 03:59:30.080 ,6,0,0.,12.0,0.,12.0,0.,12.0,0.,12.0
1980-11-15 03:59:42.080 ,6,0,0.,12.0,0.,12.0,0.,12.0,0.,12.0
1980-11-15 03:59:54.080 ,7,0,0.,12.0,0.,12.0,0.,12.0,0.,12.0
1980-11-15 04:00:06.080 ,7,0,0.,12.0,0.,12.0,0.,12.0,0.,12.0
1980-11-15 04:00:18.080 ,7,0,0.,12.0,0.,12.0,0.,12.0,0.,12.0
1980-11-15 04:00:30.080 ,7,0,0.,12.0,0.,12.0,0.,12.0,0.,12.0
1980-11-15 04:00:42.080 ,7,0,0.,12.0,0.,12.0,0.,12.0,0.,12.0
1980-11-15 04:00:54.080 ,7,0,0.,12.0,0.,12.0,0.,12.0,0.,12.0
1980-11-15 04:01:06.080 ,7,0,0.,12.0,0.,12.0,0.,12.0,0.,12.0
1980-11-15 04:01:18.080 ,7,0,0.,12.0,0.,12.0,0.,12.0,0.,12.0
1980-11-15 04:01:30.080 ,6,0,0.,12.0,0.,12.0,0.,12.0,0.,12.0
1980-11-15 04:01:42.080 ,6,0,0.,12.0,0.,12.0,0.,12.0,0.,12.0
1980-11-15 04:01:54.080 ,6,0,0.,12.0,0.,12.0,0.,12.0,0.,12.0
1980-11-15 04:02:06.080 ,6,0,0.,12.0,0.,12.0,0.,12.0,0.,12.0
1980-11-15 04:02:18.080 ,5,0,0.,12.0,0.,12.0,0.,12.0,0.,12.0
1980-11-15 04:02:30.080 ,5,0,0.,12.0,0.,12.0,0.,12.0,0.,12.0
1980-11-15 04:02:42.080 ,5,0,0.,12.0,0.,12.0,0.,12.0,0.,12.0
1980-11-15 04:02:54.080 ,5,0,0.,12.0,0.,12.0,0.,12.0,0.,12.0
1980-11-15 04:03:06.080 ,4,0,0.,12.0,0.,12.0,0.,12.0,0.,12.0
1980-11-15 04:03:18.080 ,4,0,0.,12.0,0.,12.0,0.,12.0,0.,12.0
1980-11-15 04:03:30.080 ,0,0,0.,12.0,0.,12.0,0.,12.0,0.,12.0
1980-11-15 04:03:42.080 ,0,0,0.,12.0,0.,12.0,0.,12.0,0.,12.0
1980-11-15 04:04:22.280 ,0,0,0.,12.0,0.,12.0,0.,12.0,0.,12.0
1980-11-15 04:04:34.280 ,0,0,0.,12.0,0.,12.0,0.,12.0,0.,12.0
1980-11-15 04:04:42.080 ,2,0,0.,12.0,0.,12.0,0.,12.0,0.,12.0
1980-11-15 04:04:54.080 ,2,0,0.,12.0,0.,12.0,0.,12.0,0.,12.0
1980-11-15 04:05:06.080 ,2,0,0.,12.0,0.,12.0,0.,12.0,0.,12.0
1980-11-15 04:05:18.080 ,2,0,0.,12.0,0.,12.0,0.,12.0,0.,12.0
1980-11-15 04:05:30.080 ,1,0,0.,12.0,0.,12.0,0.,12.0,0.,12.0
1980-11-15 04:05:42.080 ,1,0,0.,12.0,0.,12.0,0.,12.0,0.,12.0
1980-11-15 04:05:54.080 ,1,0,0.,12.0,0.,12.0,0.,12.0,0.,12.0
1980-11-15 04:06:06.080 ,1,0,0.,12.0,0.,12.0,0.,12.0,0.,12.0
1980-11-15 04:06:18.080 ,0,0,0.,12.0,0.,12.0,0.,12.0,0.,12.0
1980-11-15 04:06:30.080 ,0,0,0.,12.0,0.,12.0,0.,12.0,0.,12.0
1980-11-15 04:06:42.080 ,0,0,0.,12.0,0.,12.0,0.,12.0,0.,12.0
1980-11-15 04:06:54.080 ,0,0,0.,12.0,0.,12.0,0.,12.0,0.,12.0
1980-11-15 04:07:06.080 ,0,0,0.,12.0,0.,12.0,0.,12.0,0.,12.0
1980-11-15 04:07:18.080 ,0,0,0.,12.0,0.,12.0,0.,12.0,0.,12.0
1980-11-15 04:07:30.080 ,0,0,0.,12.0,0.,12.0,0.,12.0,0.,12.0
1980-11-15 04:07:42.080 ,0,0,0.,12.0,0.,12.0,0.,12.0,0.,12.0
1980-11-15 04:07:54.080 ,1,0,0.,12.0,0.,12.0,0.,12.0,0.,12.0
1980-11-15 04:08:06.080 ,1,0,0.,12.0,0.,12.0,0.,12.0,0.,12.0
1980-11-15 04:08:18.080 ,1,0,0.,12.0,0.,12.0,0.,12.0,0.,12.0
1980-11-15 04:08:30.080 ,1,0,0.,12.0,0.,12.0,0.,12.0,0.,12.0
1980-11-15 04:08:42.080 ,2,0,0.,12.0,0.,12.0,0.,12.0,0.,12.0
1980-11-15 04:08:54.080 ,2,0,0.,12.0,0.,12.0,0.,12.0,0.,12.0
1980-11-15 04:09:06.080 ,2,0,0.,12.0,0.,12.0,0.,12.0,0.,12.0
1980-11-15 04:09:18.080 ,2,0,0.,12.0,0.,12.0,0.,12.0,0.,12.0
1980-11-15 04:09:30.080 ,3,0,0.,12.0,0.,12.0,0.,12.0,0.,12.0
1980-11-15 04:09:42.080 ,3,0,0.,12.0,0.,12.0,0.,12.0,0.,12.0
1980-11-15 04:09:54.080 ,3,0,0.,12.0,0.,12.0,0.,12.0,0.,12.0
1980-11-15 04:10:06.080 ,3,0,0.,12.0,0.,12.0,0.,12.0,0.,12.0
1980-11-15 04:10:18.080 ,4,0,0.,12.0,0.,12.0,0.,12.0,0.,12.0
1980-11-15 04:10:30.080 ,4,0,0.,12.0,0.,12.0,0.,12.0,0.,12.0
1980-11-15 04:10:42.080 ,4,0,0.,12.0,0.,12.0,0.,12.0,0.,12.0
1980-11-15 04:10:54.080 ,4,0,0.,12.0,0.,12.0,0.,12.0,0.,12.0
1980-11-15 04:11:06.080 ,5,0,0.,12.0,0.,12.0,0.,12.0,0.,12.0
1980-11-15 04:11:18.080 ,5,0,0.,12.0,0.,12.0,0.,12.0,0.,12.0
1980-11-15 04:11:30.080 ,5,0,0.,12.0,0.,12.0,0.,12.0,0.,12.0
1980-11-15 04:11:42.080 ,5,0,0.,12.0,0.,12.0,0.,12.0,0.,12.0
1980-11-15 04:11:54.080 ,6,0,0.,12.0,0.,12.0,0.,12.0,0.,12.0
1980-11-15 04:12:06.080 ,6,0,0.,12.0,0.,12.0,0.,12.0,0.,12.0
1980-11-15 04:12:18.080 ,6,0,0.,12.0,0.,12.0,0.,12.0,0.,12.0
1980-11-15 04:12:30.080 ,6,0,0.,12.0,0.,12.0,0.,12.0,0.,12.0
1980-11-15 04:12:42.080 ,7,0,0.,12.0,0.,12.0,0.,12.0,0.,12.0
1980-11-15 04:12:54.080 ,7,0,0.,12.0,0.,12.0,0.,12.0,0.,12.0
1980-11-15 04:13:06.080 ,7,0,0.,12.0,0.,12.0,0.,12.0,0.,12.0
1980-11-15 04:13:18.080 ,7,0,0.,12.0,0.,12.0,0.,12.0,0.,12.0
1980-11-15 04:13:30.080 ,7,0,0.,12.0,0.,12.0,0.,12.0,0.,12.0
1980-11-15 04:13:42.080 ,7,0,0.,12.0,0.,12.0,0.,12.0,0.,12.0
1980-11-15 04:13:54.080 ,7,0,0.,12.0,0.,12.0,0.,12.0,0.,12.0
1980-11-15 04:14:06.080 ,7,0,0.,12.0,0.,12.0,0.,12.0,0.,12.0
1980-11-15 04:14:18.080 ,6,0,0.,12.0,0.,12.0,0.,12.0,0.,12.0
1980-11-15 04:14:30.080 ,6,0,0.,12.0,0.,12.0,0.,12.0,0.,12.0
1980-11-15 04:14:42.080 ,6,0,0.,12.0,0.,12.0,0.,12.0,0.,12.0
1980-11-15 04:14:54.080 ,6,0,0.,12.0,0.,12.0,0.,12.0,0.,12.0
1980-11-15 04:15:06.080 ,5,0,0.,12.0,0.,12.0,0.,12.0,0.,12.0
1980-11-15 04:15:18.080 ,5,0,0.,12.0,0.,12.0,0.,12.0,0.,12.0
1980-11-15 04:15:30.080 ,5,0,0.,12.0,0.,12.0,0.,12.0,0.,12.0
1980-11-15 04:15:42.080 ,5,0,0.,12.0,0.,12.0,0.,12.0,0.,12.0
1980-11-15 04:15:54.080 ,4,0,0.,12.0,0.,12.0,0.,12.0,0.,12.0
1980-11-15 04:16:06.080 ,4,0,0.,12.0,0.,12.0,0.,12.0,0.,12.0
1980-11-15 04:16:18.080 ,4,0,0.,12.0,0.,12.0,0.,12.0,0.,12.0
1980-11-15 04:16:30.080 ,4,0,0.,12.0,0.,12.0,0.,12.0,0.,12.0
1980-11-15 04:16:42.080 ,3,0,0.,12.0,0.,12.0,0.,12.0,0.,12.0
1980-11-15 04:16:54.080 ,3,0,0.,12.0,0.,12.0,0.,12.0,0.,12.0
1980-11-15 04:17:06.080 ,3,0,0.,12.0,0.,12.0,0.,12.0,0.,12.0
1980-11-15 04:17:18.080 ,3,0,0.,12.0,0.,12.0,0.,12.0,0.,12.0
1980-11-15 04:17:30.080 ,2,0,0.,12.0,0.,12.0,0.,12.0,0.,12.0
1980-11-15 04:17:42.080 ,2,0,0.,12.0,0.,12.0,0.,12.0,0.,12.0